Domov               UVHVVR             MKGP            O straneh              
ZDRAVSTVENO VARSTVO RASTLIN
  MREŽA AGROMET. POSTAJ
 ► PROGNOSTIČNA OBVESTILA
AGROMETEOROLOŠKI PODATKI -
ARSO
OBVLADOVANJE TVEGANJ ZARADI
NEUGODNIH VREMENSKIH RAZMER
  ► NARAVNE NESREČE
  ► SUŠA/MOČA
  ► NAMAKANJE
  ► ŽLED (gozdarstvo)
KARTOGRAFSKI PRIKAZI
SPLETNE POVEZAVE
PROJEKTI IN PUBLIKACIJE

AGROMETEOROLOŠKA MREŽA: VREMENSKE POSTAJE IN FENOLOŠKA OPAZOVANJA

Pregled podatkov za lokacijo Artiče, meteorološka postaja 42800

Pregled senzorjev na lokaciji

ID Ime Zadnja
vrednost
Datum
zadnje
spremembe
Tip
senzorja
2446 Temperatura 2 m (°C) 5,63 °C 11.12.2017 09:30 50YA
2447 Relativna vlaga 2 m (% RH) 81,99 % RH 11.12.2017 09:30 50YA
2448 Omočenost lista (U) 0 U 11.12.2017 09:30 A730WET
3778 Padavine (mm) 0 mm 11.12.2017 09:30 Rain-O-Matic

Pregled podatkov zadnjih 24 ur

Zap.
št.
Datum in čas Artiče
Omočenost
lista
Padavine Relativna
vlaga
2
m
Temperatura
2
m
0 11.12.2017 09:30 0 0 81,99 5,63
1 11.12.2017 09:00 2 0 83,65 5,13
2 11.12.2017 08:30 2 0 83,61 5,04
3 11.12.2017 08:00 2 0,6 84,59 4,72
4 11.12.2017 07:30 3 1,2 89,7 3,49
5 11.12.2017 07:00 7 1,2 93,14 2,87
6 11.12.2017 06:30 9 1,6 90,92 3,35
7 11.12.2017 06:00 9 2 89,49 3,12
8 11.12.2017 05:30 10 0,2 96,88 1,64
9 11.12.2017 05:00 10 0,2 99,88 1
10 11.12.2017 04:30 10 0,4 100 0,65
11 11.12.2017 04:00 9 0,2 100 0,35
12 11.12.2017 03:30 9 0,2 97,28 0,93
13 11.12.2017 03:00 8 0,2 98,24 0,96
14 11.12.2017 02:30 7 0,2 99,91 0,69
15 11.12.2017 02:00 5 0,2 100 0,69
16 11.12.2017 01:30 6 0,2 100 0,9
17 11.12.2017 01:00 9 0,4 100 0,74
18 11.12.2017 00:30 4 0,4 99,99 0,94
19 11.12.2017 00:00 4 0,2 100 0,75
20 10.12.2017 23:30 4 0,2 100 0,53
21 10.12.2017 23:00 4 0,2 100 0,48
22 10.12.2017 22:30 4 0,2 99,74 0,82
23 10.12.2017 22:00 4 0,2 95,61 0,86
24 10.12.2017 21:30 4 0,2 91,88 0,89
25 10.12.2017 21:00 4 0 90,01 1,09
26 10.12.2017 20:30 5 0 92,01 0,48
27 10.12.2017 20:00 5 0 93,09 -0,14
28 10.12.2017 19:30 5 0 87,77 0,3
29 10.12.2017 19:00 5 0 83,7 0,67
30 10.12.2017 18:30 5 0 81,02 0,86
31 10.12.2017 18:00 5 0 80,32 0,71
32 10.12.2017 17:30 5 0 82,38 0,63
33 10.12.2017 17:00 4 0 85,9 0,04
34 10.12.2017 16:30 4 0 89,96 -0,54
35 10.12.2017 16:00 4 0 92,81 -0,68
36 10.12.2017 15:30 4 0 93,44 -0,86
37 10.12.2017 15:00 5 0 94,25 -1,3
38 10.12.2017 14:30 5 0 92,79 -1,66
39 10.12.2017 14:00 4 0 92,13 -1,36
40 10.12.2017 13:30 4 0 94,34 -1,77
41 10.12.2017 13:00 4 0 95,13 -1,65
42 10.12.2017 12:30 9 0 98,15 -2,16
43 10.12.2017 12:00 2 0 97,7 -3,5
44 10.12.2017 11:30 1 0 98,2 -3,76
45 10.12.2017 11:00 1 0 97,96 -4,24
© 2011 Ministrstvo za kmetijstvo, gozdarstvo in prehrano. Vse pravice pridržane.